CDT,Max TemperatureF,Mean TemperatureF,Min TemperatureF,Max Dew PointF,MeanDew PointF,Min DewpointF,Max Humidity, Mean Humidity, Min Humidity, Max Sea Level PressureIn, Mean Sea Level PressureIn, Min Sea Level PressureIn, Max VisibilityMiles, Mean VisibilityMiles, Min VisibilityMiles, Max Wind SpeedMPH, Mean Wind SpeedMPH, Max Gust SpeedMPH,PrecipitationIn, CloudCover, Events, WindDirDegrees
2012-9-1,97,80,63,63,52,46,56,39,21,30.03,29.77,29.60,10,10,10,28,14,36,0.07,1,Rain-Thunderstorm,141
2012-9-2,85,72,59,64,48,26,68,40,12,29.86,29.77,29.68,10,10,10,22,10,29,0.01,2,Thunderstorm,242
2012-9-3,85,70,55,40,37,34,51,34,17,29.89,29.85,29.82,10,10,10,15,6,18,0.00,0,Thunderstorm,269
2012-9-4,80,64,47,44,39,32,77,50,22,29.92,29.86,29.82,10,10,10,24,10,31,T,1,,275
2012-9-5,77,64,50,46,42,39,80,54,27,29.96,29.91,29.87,10,10,10,25,12,32,0.00,2,,261
2012-9-6,70,60,49,52,47,41,86,65,44,30.11,29.99,29.91,10,10,10,20,8,23,T,5,,305
2012-9-7,73,59,44,45,41,38,86,58,29,30.22,30.15,30.08,10,10,10,18,10,26,0.00,2,,274
2012-9-8,72,60,48,45,36,30,77,50,22,30.21,30.14,30.00,10,10,10,22,12,28,0.00,0,,304
2012-9-9,83,62,40,38,35,33,73,46,18,30.19,29.99,29.70,10,10,10,26,12,35,0.00,0,,158
2012-9-10,91,75,59,42,38,34,43,29,14,29.69,29.58,29.54,10,10,9,24,9,35,0.00,1,,222
2012-9-11,77,65,52,45,31,21,51,34,16,30.00,29.82,29.61,10,10,9,25,17,31,T,1,,286
2012-9-12,68,56,44,26,22,14,49,31,13,30.25,30.14,30.01,10,10,2,35,16,43,0.00,0,,259
2012-9-13,75,59,42,34,27,22,62,39,16,30.31,30.26,30.17,10,9,2,18,9,26,0.00,2,,230
2012-9-14,75,56,36,34,31,28,79,49,19,30.35,30.25,30.06,10,10,10,12,4,14,0.00,0,,174
2012-9-15,83,67,51,39,34,31,48,33,17,30.04,29.93,29.87,10,10,10,23,11,29,0.00,0,,271
2012-9-16,54,50,45,46,41,32,86,66,45,30.20,30.14,30.02,10,10,7,17,6,23,0.05,5,Rain,306
2012-9-17,57,48,38,43,35,28,92,63,33,30.21,30.16,30.08,10,10,10,16,8,26,0.00,2,,297
2012-9-18,80,61,42,40,34,30,62,43,23,30.04,29.80,29.65,10,10,10,24,11,31,0.00,3,,227
2012-9-19,65,57,49,41,32,21,68,44,19,30.02,29.89,29.68,10,10,9,39,20,48,0.00,0,,292
2012-9-20,67,56,44,34,31,27,58,42,26,30.02,29.96,29.88,10,10,10,14,9,18,0.00,4,,267
2012-9-21,67,47,27,38,29,18,76,48,19,30.25,30.02,29.91,10,10,10,30,12,47,0.00,0,,308
2012-9-22,56,41,26,26,20,14,81,50,19,30.42,30.35,30.27,10,10,10,9,3,13,0.00,0,,240
2012-9-23,68,49,29,28,23,20,78,47,15,30.33,30.23,30.04,10,10,10,14,5,20,0.00,0,,187
2012-9-24,80,63,45,44,34,28,64,42,19,30.01,29.88,29.81,10,10,10,20,11,25,0.00,0,,285
2012-9-25,68,50,31,36,33,30,92,59,26,30.03,29.98,29.93,10,10,8,10,4,15,0.00,0,,90
2012-9-26,77,54,31,39,35,29,89,57,24,30.13,30.08,30.04,10,10,9,15,5,18,0.00,0,,114
2012-9-27,72,58,44,42,41,38,71,52,33,30.11,30.08,30.04,10,10,7,10,4,13,0.00,2,,320
2012-9-28,81,62,42,43,41,37,82,54,26,30.15,30.09,30.01,10,9,5,14,6,21,0.00,0,,133
2012-9-29,87,67,46,44,38,32,58,39,19,30.01,29.92,29.83,10,10,10,28,10,32,0.00,0,,159
2012-9-30,74,62,50,50,44,37,89,60,31,30.13,29.96,29.86,10,10,10,28,15,32,0.05,1,Rain,283